| time (UTC) | temp F | wind direction | speed MPH | gust MPH | rain 1hr in | rain 24hr in | rain mn in | humidity % | barometer mb |
| 20260510173506 | 81 | 269 | 2.0 | 4.0 | 0.00 | 0.00 | 0.00 | 31 | 1019.7 |
| 20260510172506 | 81 | 69 | 2.0 | 4.0 | 0.00 | 0.00 | 0.00 | 31 | 1019.8 |
| 20260510171508 | 81 | 333 | 3.0 | 5.0 | 0.00 | 0.00 | 0.00 | 31 | 1019.8 |
| 20260510171406 | 81 | 24 | 2.0 | 3.0 | 0.00 | 0.00 | 0.00 | 31 | 1019.8 |
| 20260510170505 | 80 | 292 | 0.0 | 0.0 | 0.00 | 0.00 | 0.00 | 30 | 1019.7 |
| 20260510165507 | 80 | 308 | 2.0 | 5.0 | 0.00 | 0.00 | 0.00 | 31 | 1019.9 |
| 20260510163507 | 80 | 284 | 1.0 | 3.0 | 0.00 | 0.00 | 0.00 | 29 | 1019.9 |
| 20260510162606 | 80 | 195 | 1.0 | 3.0 | 0.00 | 0.00 | 0.00 | 34 | 1020.1 |
| 20260510161705 | 80 | 40 | 4.0 | 6.0 | 0.00 | 0.00 | 0.00 | 36 | 1020.0 |
| 20260510161623 | 80 | 3 | 4.0 | 6.0 | 0.00 | 0.00 | 0.00 | 36 | 1020.0 |
| 20260510160708 | 79 | 77 | 0.0 | 2.0 | 0.00 | 0.00 | 0.00 | 37 | 1020.0 |
| 20260510155707 | 79 | 4 | 2.0 | 5.0 | 0.00 | 0.00 | 0.00 | 39 | 1020.0 |
| 20260510154724 | 79 | 15 | 3.0 | 6.0 | 0.00 | 0.00 | 0.00 | 40 | 1020.1 |
| 20260510153706 | 78 | 36 | 3.0 | 4.0 | 0.00 | 0.00 | 0.00 | 40 | 1020.2 |
| 20260510152721 | 78 | 360 | 2.0 | 4.0 | 0.00 | 0.00 | 0.00 | 39 | 1020.2 |
| 20260510151707 | 78 | 246 | 1.0 | 3.0 | 0.00 | 0.00 | 0.00 | 42 | 1020.3 |
| 20260510150805 | 78 | 30 | 1.0 | 3.0 | 0.00 | 0.00 | 0.00 | 41 | 1020.3 |
| 20260510145808 | 78 | 356 | 3.0 | 5.0 | 0.00 | 0.00 | 0.00 | 45 | 1020.1 |
| 20260510142822 | 73 | 172 | 2.0 | 4.0 | 0.00 | 0.00 | 0.00 | 52 | 1020.3 |
| 20260510141905 | 74 | 105 | 3.0 | 4.0 | 0.00 | 0.00 | 0.00 | 52 | 1020.2 |
| 20260510140906 | 75 | 270 | 1.0 | 2.0 | 0.00 | 0.00 | 0.00 | 54 | 1020.4 |
| 20260510135907 | 74 | 315 | 1.0 | 3.0 | 0.00 | 0.00 | 0.00 | 56 | 1020.3 |
| 20260510134907 | 73 | 339 | 1.0 | 2.0 | 0.00 | 0.00 | 0.00 | 57 | 1020.3 |
| 20260510133905 | 72 | 315 | 0.0 | 2.0 | 0.00 | 0.00 | 0.00 | 57 | 1020.4 |
| 20260510132921 | 71 | 333 | 1.0 | 3.0 | 0.00 | 0.00 | 0.00 | 61 | 1020.3 |
| 20260510131904 | 70 | 314 | 2.0 | 3.0 | 0.00 | 0.00 | 0.00 | 64 | 1020.2 |
| 20260510130907 | 70 | 270 | 0.0 | 2.0 | 0.00 | 0.00 | 0.00 | 66 | 1020.4 |
| 20260510124907 | 67 | 337 | 0.0 | 0.0 | 0.00 | 0.00 | 0.00 | 74 | 1020.2 |
| 20260510123004 | 65 | 292 | 0.0 | 1.0 | 0.00 | 0.00 | 0.00 | 92 | 1020.1 |
| 20260510122005 | 64 | 292 | 0.0 | 0.0 | 0.00 | 0.00 | 0.00 | 93 | 1019.9 |
| 20260510121007 | 62 | 360 | 0.0 | 0.0 | 0.00 | 0.00 | 0.00 | 94 | 1019.8 |
| 20260510120007 | 61 | 292 | 0.0 | 0.0 | 0.00 | 0.00 | 0.00 | 93 | 1019.5 |
| 20260510112023 | 54 | 292 | 0.0 | 0.0 | 0.00 | 0.00 | 0.00 | 94 | 1018.9 |
| 20260510111007 | 54 | 292 | 0.0 | 0.0 | 0.00 | 0.00 | 0.00 | 94 | 1018.8 |
| 20260510110105 | 55 | 292 | 0.0 | 0.0 | 0.00 | 0.00 | 0.00 | 94 | 1018.4 |
| 20260510105122 | 54 | 292 | 0.0 | 0.0 | 0.00 | 0.00 | 0.00 | 93 | 1018.3 |
| 20260510104204 | 54 | 292 | 0.0 | 0.0 | 0.00 | 0.00 | 0.00 | 93 | 1018.3 |
| 20260510103205 | 55 | 292 | 0.0 | 0.0 | 0.00 | 0.00 | 0.00 | 93 | 1017.9 |
| 20260510102306 | 55 | 292 | 0.0 | 0.0 | 0.00 | 0.00 | 0.00 | 92 | 1017.8 |
| 20260510101321 | 55 | 292 | 0.0 | 0.0 | 0.00 | 0.00 | 0.00 | 93 | 1017.7 |
| 20260510100407 | 55 | 292 | 0.0 | 0.0 | 0.00 | 0.00 | 0.00 | 92 | 1017.7 |
| 20260510092508 | 56 | 292 | 0.0 | 0.0 | 0.00 | 0.00 | 0.00 | 92 | 1017.4 |
| 20260510091507 | 56 | 292 | 0.0 | 0.0 | 0.00 | 0.00 | 0.00 | 92 | 1017.2 |
| 20260510090506 | 57 | 292 | 0.0 | 0.0 | 0.00 | 0.00 | 0.00 | 92 | 1017.2 |
| 20260510085507 | 56 | 292 | 0.0 | 0.0 | 0.00 | 0.00 | 0.00 | 92 | 1017.4 |
| 20260510084522 | 56 | 292 | 0.0 | 0.0 | 0.00 | 0.00 | 0.00 | 92 | 1017.1 |
| 20260510083621 | 57 | 292 | 0.0 | 0.0 | 0.00 | 0.00 | 0.00 | 92 | 1016.8 |
| 20260510082707 | 57 | 292 | 0.0 | 0.0 | 0.00 | 0.00 | 0.00 | 92 | 1016.8 |
| 20260510081707 | 57 | 292 | 0.0 | 0.0 | 0.00 | 0.00 | 0.00 | 92 | 1016.7 |
| 20260510080723 | 57 | 292 | 0.0 | 0.0 | 0.00 | 0.00 | 0.00 | 91 | 1016.6 |
| 20260510075808 | 58 | 292 | 0.0 | 0.0 | 0.00 | 0.00 | 0.00 | 91 | 1016.5 |
| 20260510074906 | 58 | 292 | 0.0 | 0.0 | 0.00 | 0.00 | 0.00 | 91 | 1016.4 |
| 20260510074004 | 58 | 292 | 0.0 | 0.0 | 0.00 | 0.00 | 0.00 | 90 | 1016.3 |
| 20260510073007 | 58 | 292 | 0.0 | 0.0 | 0.00 | 0.00 | 0.00 | 90 | 1016.3 |
| 20260510072006 | 58 | 292 | 0.0 | 0.0 | 0.00 | 0.00 | 0.00 | 90 | 1016.1 |
| 20260510071005 | 58 | 292 | 0.0 | 0.0 | 0.00 | 0.00 | 0.00 | 90 | 1016.2 |
| 20260510070104 | 58 | 292 | 0.0 | 0.0 | 0.00 | 0.00 | 0.00 | 89 | 1016.3 |
| 20260510065105 | 59 | 292 | 0.0 | 0.0 | 0.00 | 0.00 | 0.00 | 88 | 1016.3 |
| 20260510064107 | 59 | 292 | 0.0 | 0.0 | 0.00 | 0.00 | 0.00 | 89 | 1016.2 |
| 20260510063204 | 60 | 292 | 0.0 | 0.0 | 0.00 | 0.00 | 0.00 | 89 | 1016.3 |
| 20260510062206 | 60 | 292 | 0.0 | 0.0 | 0.00 | 0.00 | 0.00 | 89 | 1016.2 |
| 20260510060206 | 61 | 292 | 0.0 | 0.0 | 0.00 | 0.00 | 0.00 | 88 | 1016.4 |
| 20260510054221 | 61 | 275 | 0.0 | 1.0 | 0.00 | 0.00 | 0.00 | 88 | 1016.3 |
| 20260510053207 | 62 | 202 | 0.0 | 0.0 | 0.00 | 0.00 | 0.00 | 87 | 1016.4 |
| 20260510052206 | 61 | 225 | 1.0 | 2.0 | 0.00 | 0.00 | 0.00 | 86 | 1016.4 |
| 20260510051305 | 62 | 202 | 0.0 | 0.0 | 0.00 | 0.00 | 0.00 | 87 | 1016.6 |
| 20260510050305 | 62 | 180 | 2.0 | 2.0 | 0.00 | 0.00 | 0.00 | 87 | 1016.4 |
| 20260510044405 | 62 | 221 | 1.0 | 2.0 | 0.00 | 0.00 | 0.00 | 86 | 1016.5 |
| 20260510043406 | 62 | 202 | 2.0 | 2.0 | 0.00 | 0.00 | 0.00 | 85 | 1016.6 |
| 20260510042405 | 62 | 202 | 0.0 | 1.0 | 0.00 | 0.00 | 0.00 | 84 | 1016.6 |
| 20260510041505 | 63 | 202 | 0.0 | 1.0 | 0.00 | 0.00 | 0.00 | 85 | 1016.6 |
| 20260510040505 | 63 | 202 | 2.0 | 2.0 | 0.00 | 0.00 | 0.00 | 84 | 1016.6 |
| 20260510035505 | 63 | 202 | 1.0 | 1.0 | 0.00 | 0.00 | 0.00 | 84 | 1016.6 |
| 20260510034505 | 63 | 202 | 0.0 | 0.0 | 0.00 | 0.00 | 0.00 | 84 | 1016.6 |
| 20260510033506 | 63 | 202 | 0.0 | 2.0 | 0.00 | 0.00 | 0.00 | 83 | 1016.6 |
| 20260510032505 | 63 | 202 | 0.0 | 1.0 | 0.00 | 0.00 | 0.00 | 82 | 1016.6 |
| 20260510031506 | 64 | 202 | 1.0 | 2.0 | 0.00 | 0.00 | 0.00 | 82 | 1016.7 |
| 20260510030507 | 64 | 202 | 0.0 | 0.0 | 0.00 | 0.00 | 0.00 | 82 | 1016.4 |
| 20260510023622 | 64 | 202 | 0.0 | 2.0 | 0.00 | 0.00 | 0.00 | 81 | 1016.5 |
| 20260510023505 | 64 | 202 | 0.0 | 2.0 | 0.00 | 0.00 | 0.00 | 81 | 1016.4 |
| 20260510022605 | 65 | 202 | 0.0 | 1.0 | 0.00 | 0.00 | 0.00 | 80 | 1016.4 |
| 20260510021606 | 65 | 202 | 0.0 | 0.0 | 0.00 | 0.00 | 0.00 | 78 | 1016.3 |
| 20260510020607 | 65 | 202 | 2.0 | 3.0 | 0.00 | 0.00 | 0.00 | 78 | 1016.1 |
| 20260510015621 | 66 | 202 | 2.0 | 3.0 | 0.00 | 0.00 | 0.00 | 78 | 1016.0 |
| 20260510014706 | 66 | 202 | 2.0 | 3.0 | 0.00 | 0.00 | 0.00 | 76 | 1016.0 |
| 20260510013706 | 66 | 180 | 0.0 | 2.0 | 0.00 | 0.00 | 0.00 | 77 | 1015.9 |
| 20260510012805 | 66 | 202 | 2.0 | 3.0 | 0.00 | 0.00 | 0.00 | 76 | 1015.7 |
| 20260510011821 | 67 | 190 | 1.0 | 3.0 | 0.00 | 0.00 | 0.00 | 75 | 1015.5 |
| 20260510010904 | 67 | 198 | 2.0 | 4.0 | 0.00 | 0.00 | 0.00 | 74 | 1015.3 |
| 20260510005905 | 68 | 202 | 1.0 | 2.0 | 0.00 | 0.00 | 0.00 | 73 | 1015.3 |
| 20260510005004 | 68 | 202 | 2.0 | 3.0 | 0.00 | 0.00 | 0.00 | 71 | 1014.9 |
| 20260510003105 | 69 | 204 | 4.0 | 5.0 | 0.00 | 0.00 | 0.00 | 69 | 1014.7 |
| 20260510002203 | 69 | 202 | 2.0 | 2.0 | 0.00 | 0.00 | 0.00 | 70 | 1014.5 |
| 20260510001107 | 70 | 202 | 4.0 | 6.0 | 0.00 | 0.00 | 0.00 | 68 | 1014.5 |
| 20260510000106 | 70 | 182 | 2.0 | 4.0 | 0.00 | 0.00 | 0.00 | 68 | 1014.3 |
| 20260510000020 | 70 | 190 | 2.0 | 4.0 | 0.00 | 0.00 | 0.00 | 67 | 1014.2 |
| 20260509235006 | 71 | 202 | 4.0 | 7.0 | 0.00 | 0.00 | 0.00 | 66 | 1014.2 |
| 20260509234005 | 71 | 185 | 3.0 | 4.0 | 0.00 | 0.00 | 0.00 | 66 | 1014.2 |
| 20260509233021 | 71 | 191 | 4.0 | 7.0 | 0.00 | 0.00 | 0.00 | 65 | 1014.2 |
| 20260509232006 | 72 | 202 | 5.0 | 7.0 | 0.00 | 0.00 | 0.00 | 63 | 1014.2 |
| 20260509231004 | 72 | 203 | 5.0 | 9.0 | 0.00 | 0.00 | 0.00 | 63 | 1013.8 |
| 20260509225104 | 73 | 200 | 5.0 | 7.0 | 0.00 | 0.00 | 0.00 | 62 | 1013.8 |
| 20260509222119 | 74 | 169 | 5.0 | 8.0 | 0.00 | 0.00 | 0.00 | 61 | 1013.5 |
| 20260509222004 | 74 | 177 | 5.0 | 8.0 | 0.00 | 0.00 | 0.00 | 60 | 1013.4 |
| 20260509221005 | 74 | 194 | 5.0 | 8.0 | 0.00 | 0.00 | 0.00 | 58 | 1013.4 |
| 20260509220004 | 74 | 158 | 2.0 | 7.0 | 0.00 | 0.00 | 0.00 | 59 | 1013.3 |
| 20260509215007 | 75 | 183 | 4.0 | 5.0 | 0.00 | 0.00 | 0.00 | 56 | 1013.3 |
| 20260509214104 | 76 | 193 | 6.0 | 8.0 | 0.00 | 0.00 | 0.00 | 54 | 1013.4 |
| 20260509213105 | 76 | 213 | 4.0 | 7.0 | 0.00 | 0.00 | 0.00 | 54 | 1013.3 |
| 20260509212203 | 76 | 193 | 5.0 | 8.0 | 0.00 | 0.00 | 0.00 | 54 | 1013.3 |
| 20260509211219 | 76 | 212 | 2.0 | 8.0 | 0.00 | 0.00 | 0.00 | 55 | 1013.3 |
| 20260509210304 | 76 | 267 | 2.0 | 5.0 | 0.00 | 0.00 | 0.00 | 54 | 1013.4 |
| 20260509205307 | 76 | 212 | 2.0 | 7.0 | 0.00 | 0.00 | 0.00 | 55 | 1013.3 |
| 20260509204403 | 75 | 189 | 6.0 | 10.0 | 0.00 | 0.00 | 0.00 | 57 | 1013.2 |
| 20260509203405 | 75 | 197 | 7.0 | 10.0 | 0.00 | 0.00 | 0.00 | 56 | 1013.1 |
| 20260509202420 | 76 | 250 | 3.0 | 10.0 | 0.00 | 0.00 | 0.00 | 54 | 1013.3 |
| 20260509201421 | 77 | 218 | 4.0 | 7.0 | 0.00 | 0.00 | 0.00 | 52 | 1013.4 |
| 20260509200506 | 76 | 177 | 4.0 | 7.0 | 0.00 | 0.00 | 0.00 | 55 | 1013.4 |
| 20260509195505 | 75 | 232 | 2.0 | 4.0 | 0.00 | 0.00 | 0.00 | 56 | 1013.5 |
| 20260509194519 | 74 | 206 | 3.0 | 10.0 | 0.00 | 0.00 | 0.00 | 58 | 1013.6 |
| 20260509193505 | 73 | 202 | 5.0 | 7.0 | 0.00 | 0.00 | 0.00 | 58 | 1013.6 |
| 20260509192505 | 73 | 200 | 6.0 | 8.0 | 0.00 | 0.00 | 0.00 | 58 | 1014.0 |
| 20260509192403 | 73 | 181 | 3.0 | 6.0 | 0.00 | 0.00 | 0.00 | 59 | 1013.7 |
| 20260509190416 | 73 | 202 | 10.0 | 10.0 | 0.00 | 0.00 | 0.00 | 58 | 1014.1 |
| 20260509184517 | 73 | 195 | 8.0 | 13.0 | 0.00 | 0.00 | 0.00 | 59 | 1014.0 |
| 20260509183516 | 72 | 173 | 7.0 | 9.0 | 0.00 | 0.00 | 0.00 | 61 | 1014.1 |
| 20260509180617 | 70 | 163 | 4.0 | 6.0 | 0.00 | 0.00 | 0.00 | 63 | 1014.7 |
| 20260509175632 | 70 | 184 | 4.0 | 7.0 | 0.00 | 0.00 | 0.00 | 63 | 1014.7 |